Meteo Giornale » Osservazioni meteo Stati Uniti (USA) » Windsor Locks Bradley
ore: 12:51 - Osservazioni Meteo Windsor Locks Bradley
Lat. 41° 56' N Lon. 72° 40' W Alt. 53 metri s.l.m.
20 °C
Pioggia Foschia
Temp. 24 Ore
19 °C
26 °C
Sud-Est
16.7 Km/h
Dew point 19 °C
Umidità 93 %
Visibilità 2 Km
Il sole sorge alle ore 06:16
Il sole tramonta alle ore 19:24
| Data e Ora | Cielo e Fenomeni | T °C | DP °C | Um. % | Pres. hPa | Vis. km | Vento km/h | |
|---|---|---|---|---|---|---|---|---|
| Oggi h: 12:51 | Pioggia Foschia | 20 | 19 | 93 | 1015 | 2 | SE 16.7 | |
| Oggi h: 12:30 | Pioviggine Foschia | 20 | 19 | 93 | 1015 | 3 | SE 14.8 | |
| Oggi h: 11:51 | Pioviggine Foschia | 19 | 19 | 100 | 1016 | 2 | E/SE 13 | |
| Oggi h: 10:51 | Pioggia Foschia | 19 | 19 | 100 | 1016 | 2 | E 11.1 | |
| Oggi h: 10:21 | Pioggia Foschia | 19 | 19 | 100 | 1016 | 2 | E 9.3 | |
| Oggi h: 10:03 | Pioviggine Foschia | 19 | 19 | 100 | 1016 | 3 | E 9.3 | |
| Oggi h: 09:51 | Foschia | 19 | 19 | 100 | 1016 | 3 | E/NE 7.4 | |
| Oggi h: 09:30 | Pioggia Foschia | 19 | 19 | 100 | 1016 | 3 | SE 13 | |
| Oggi h: 09:07 | Pioggia Foschia | 19 | 19 | 100 | 1016 | 2 | S/SE 14.8 | |
| Oggi h: 09:02 | Pioggia Foschia | 19 | 19 | 100 | 1016 | 2 | S/SE 11.1 | |
| Oggi h: 08:51 | Pioviggine Foschia | 19 | 19 | 100 | 1016 | 5 | S/SE 11.1 | |
| Oggi h: 08:46 | Pioviggine Foschia | 19 | 19 | 100 | 1016 | 5 | S/SE 16.7 | |
| Oggi h: 08:30 | Pioviggine Foschia | 19 | 19 | 100 | 1016 | 10 | SE 13 | |
| Oggi h: 07:51 | Pioggia Foschia | 19 | 19 | 100 | 1016 | 2 | SE 11.1 | |
| Oggi h: 07:35 | Pioggia Foschia | 19 | 19 | 100 | 1016 | 2 | N 5.5 | |
| Oggi h: 07:25 | Pioggia Foschia | 19 | 19 | 100 | 1016 | 2 | N 5.5 | |
| Oggi h: 06:51 | Pioggia Foschia | 19 | 19 | 100 | 1016 | 3 | E/SE 7.4 | |
| Oggi h: 06:21 | Pioggia Foschia | 19 | 19 | 100 | 1016 | 3 | E/SE 9.3 | |
| Oggi h: 05:51 | Pioviggine Foschia | 19 | 18 | 93 | 1016 | 6 | N 5.5 | |
| Oggi h: 05:08 | Coperto | 20 | 18 | 88 | 1016 | 14 | S/SE 9.3 | |
| Oggi h: 04:51 | Coperto | 20 | 18 | 88 | 1016 | 10 | S 9.3 | |
| Oggi h: 03:51 | Coperto | 20 | 18 | 88 | 1017 | 10 | S/SE 7.4 | |
| Oggi h: 02:51 | Coperto | 20 | 18 | 88 | 1017 | 10 | S 7.4 | |
| Oggi h: 01:51 | Coperto | 20 | 18 | 88 | 1017 | 10 | S/SE 9.3 | |
| Oggi h: 00:51 | Coperto | 20 | 18 | 88 | 1018 | 10 | S/SE 9.3 | |
| Oggi h: 00:04 | Coperto | 20 | 18 | 88 | 1018 | 13 | S/SE 13 | |
| Ieri h: 23:51 | Coperto | 21 | 17 | 77 | 1018 | 10 | S 13 | |
| Ieri h: 22:51 | Coperto | 21 | 16 | 73 | 1018 | 10 | S 11.1 | |
| Ieri h: 21:51 | Coperto | 22 | 16 | 68 | 1018 | 10 | S 11.1 | |
| Ieri h: 20:51 | Coperto | 22 | 17 | 73 | 1018 | 10 | S 14.8 | |
| Ieri h: 19:51 | Coperto | 23 | 16 | 64 | 1018 | 10 | S/SO 13 | |
| Ieri h: 18:51 | Coperto | 23 | 14 | 56 | 1018 | 10 | S/SO 13 | |
| Ieri h: 17:51 | Molto Nuvoloso | 24 | 16 | 60 | 1018 | 10 | S 11.1 | |
| Ieri h: 16:51 | Molto Nuvoloso | 25 | 14 | 50 | 1018 | 10 | S/SE 11.1 | |
| Ieri h: 15:51 | Molto Nuvoloso | 26 | 15 | 50 | 1019 | 10 | N 9.3 | |
| Ieri h: 14:51 | Molto Nuvoloso | 25 | 14 | 50 | 1019 | 10 | N 5.5 | |



